This is the latest recevied weather packets stored in our database for station/object IW1QNQ-13. If no packets are shown the sender has not sent any weather packets the latest 10 day(s).
| Time | Temp. | Humidity | Pressure | Rain* | Wind** | Luminosity | Snow |
|---|---|---|---|---|---|---|---|
| 1778246548 | 33.89° C | 34% | 1023.8 hPa | - | - | - | - |
| 1778245344 | 25.56° C | 47% | 1024.2 hPa | - | - | - | - |
| 1778244140 | 23.89° C | 51% | 1024.3 hPa | - | - | - | - |
| 1778242937 | 25° C | 48% | 1024.4 hPa | - | - | - | - |
| 1778241733 | 26.11° C | 44% | 1024.2 hPa | - | - | - | - |
| 1778240529 | 28.33° C | 40% | 1024 hPa | - | - | - | - |
| 1778239325 | 29.44° C | 38% | 1023.8 hPa | - | - | - | - |
| 1778238122 | 28.33° C | 41% | 1023.9 hPa | - | - | - | - |
| 1778236918 | 27.22° C | 43% | 1023.9 hPa | - | - | - | - |
| 1778235714 | 27.22° C | 42% | 1023.9 hPa | - | - | - | - |
| 1778234509 | 27.22° C | 42% | 1023.8 hPa | - | - | - | - |
| 1778233305 | 27.22° C | 42% | 1023.7 hPa | - | - | - | - |
| 1778232101 | 25.56° C | 44% | 1023.6 hPa | - | - | - | - |
| 1778230896 | 24.44° C | 46% | 1023.6 hPa | - | - | - | - |
| 1778229691 | 24.44° C | 46% | 1023.6 hPa | - | - | - | - |
| 1778228487 | 23.33° C | 47% | 1023.6 hPa | - | - | - | - |
| 1778227283 | 23.89° C | 47% | 1023.4 hPa | - | - | - | - |
| 1778226079 | 23.33° C | 48% | 1023.3 hPa | - | - | - | - |
| 1778224874 | 22.22° C | 50% | 1023.1 hPa | - | - | - | - |
| 1778223670 | 21.67° C | 50% | 1023.2 hPa | - | - | - | - |
| 1778222465 | 20° C | 54% | 1023.2 hPa | - | - | - | - |
| 1778221261 | 19.44° C | 56% | 1023.1 hPa | - | - | - | - |
| 1778220056 | 19.44° C | 55% | 1023 hPa | - | - | - | - |
| 1778218852 | 18.89° C | 56% | 1023 hPa | - | - | - | - |
| 1778217648 | 17.78° C | 58% | 1022.9 hPa | - | - | - | - |
* Rain since midnight (hover to see other rain measurements)
** Current wind speed in m/s (hover to see current wind gust speed)